This demonstration page uses our WeatherBlox Daily Observations layout. Learn more.

Hourly Observations for August 24, 2018

Temp ( °F °C ) Dew Point ( °F °C ) Humidity (%) Winds ( mph kmh ) Pressure ( in mb ) Visibility ( mi km ) Precip ( " mm )
12:15 am 00:15 Cloudy with Fog 68 20.1 68 20.1 100 100 S 8 13 29.74 1007 0.5 0.804672 0 0
12:35 am 00:35 Cloudy with Fog 68 20.1 68 20.1 100 100 S 6 9 29.74 1007 0.25 0.402336 0 0
12:55 am 00:55 Cloudy with Fog 68 20.1 68 20.1 100 100 S 9 15 29.74 1007 0.25 0.402336 0 0
1:15 am 01:15 Cloudy with Drizzle 68 20.1 68 20.1 100 100 S 7 11 29.74 1007 0.25 0.402336 0 0
1:35 am 01:35 Cloudy with Light Rain 68 20.1 68 20.1 100 100 S 6 9 29.74 1007 0.25 0.402336 0 0
1:55 am 01:55 Cloudy with Light Rain 68 20 68 20 100 100 S 5 7 29.74 1007 0.25 0.402336 0 0
2:15 am 02:15 Cloudy with Fog 68 20 68 20 100 100 S 6 9 29.71 1006 0.25 0.402336 0 0
2:35 am 02:35 Cloudy with Fog 68 19.8 68 19.8 100 100 Calm 29.71 1006 0.25 0.402336 0 0
2:55 am 02:55 Cloudy with Fog 67 19.6 67 19.6 100 100 W 5 7 29.71 1006 0.5 0.804672 0 0
3:15 am 03:15 Cloudy with Fog 67 19.7 67 19.7 100 100 WSW 3 6 29.71 1006 0.5 0.804672 0 0
3:35 am 03:35 Cloudy with Fog 67 19.7 67 19.7 100 100 SW 5 7 29.71 1006 0.25 0.402336 0.01 0.254
3:55 am 03:55 Cloudy with Fog 67 19.7 67 19.7 100 100 SW 5 7 29.71 1006 0.25 0.402336 0.01 0.254
4:15 am 04:15 Cloudy with Fog 67 19.5 67 19.5 100 100 W 5 7 29.71 1006 0.5 0.804672 0 0
4:35 am 04:35 Cloudy with Fog 67 19.5 67 19.5 100 100 WNW 3 6 29.71 1006 0.5 0.804672 0 0
4:55 am 04:55 Cloudy with Fog 67 19.5 67 19.5 100 100 W 7 11 29.71 1006 0.5 0.804672 0 0
5:15 am 05:15 Cloudy with Fog 67 19.7 67 19.7 100 100 Calm 29.71 1006 0.5 0.804672 0 0
5:35 am 05:35 Cloudy with Fog 67 19.7 67 19.7 100 100 Calm 29.71 1006 0.5 0.804672 0 0
5:55 am 05:55 Cloudy with Fog 68 19.8 68 19.8 100 100 Calm 29.71 1006 0.5 0.804672 0 0
6:15 am 06:15 Cloudy with Fog 68 19.8 68 19.8 100 100 Calm 29.71 1006 0.5 0.804672 0 0
6:35 am 06:35 Cloudy with Fog 67 19.6 67 19.6 100 100 Calm 29.71 1006 0.5 0.804672 0 0
6:55 am 06:55 Cloudy with Fog 67 19.4 67 19.4 100 100 W 3 6 29.71 1006 0.5 0.804672 0 0
7:15 am 07:15 Cloudy with Fog 66 19.1 66 19.1 100 100 W 3 6 29.71 1006 0.5 0.804672 0 0
7:35 am 07:35 Cloudy with Fog 66 18.9 66 18.9 100 100 W 3 6 29.71 1006 0.25 0.402336 0 0
7:55 am 07:55 Partly Cloudy with Mist and Fog 66 19 66 19 100 100 W 7 11 29.71 1006 2.5 4.02336 0 0
8:15 am 08:15 Sunny with Mist and Fog 67 19.2 67 19.2 100 100 W 5 7 29.74 1007 5 8.04672 0 0
8:35 am 08:35 Sunny 67 19.3 67 19.3 100 100 W 5 7 29.74 1007 7 11.265408 0 0
8:55 am 08:55 Sunny 67 19.6 67 19.6 100 100 WNW 6 9 29.74 1007 10 16.09344 0 0
9:15 am 09:15 Sunny 68 20 68 20 100 100 WNW 6 9 29.74 1007 10 16.09344 0 0
9:35 am 09:35 Sunny 71 21.4 68 20 92 92 NW 6 9 29.71 1006 10 16.09344 0 0
9:55 am 09:55 Sunny 72 22.2 65 18.5 80 80 NW 6 9 29.71 1006 10 16.09344 0 0
10:15 am 10:15 Sunny 73 23 64 18 74 74 NNW 7 11 29.71 1006 10 16.09344 0 0
10:35 am 10:35 Sunny 74 23.6 64 17.9 70 70 NW 3 6 29.74 1007 10 16.09344 0 0
10:55 am 10:55 Sunny 75 24 64 17.6 68 68 NNW 6 9 29.74 1007 10 16.09344 0 0
11:15 am 11:15 Sunny 76 24.4 63 17.2 64 64 NW 7 11 29.74 1007 10 16.09344 0 0
11:35 am 11:35 Sunny 77 25 62 16.7 60 60 NW 5 7 29.74 1007 10 16.09344 0 0
11:55 am 11:55 Sunny 79 26 63 17.1 58 58 NW 5 7 29.71 1006 10 16.09344 0 0
12:15 pm 12:15 Sunny 79 26 63 17.3 59 59 WNW 6 9 29.71 1006 10 16.09344 0 0
12:35 pm 12:35 Sunny 81 27 63 17.3 55 55 NNW 3 6 29.71 1006 10 16.09344 0 0
12:55 pm 12:55 Sunny 81 27.2 61 16.3 51 51 WNW 3 6 29.68 1005 10 16.09344 0 0
1:15 pm 13:15 Sunny 82 27.5 60 15.6 48 48 NW 3 6 29.68 1005 10 16.09344 0 0
1:35 pm 13:35 Sunny 82 28 61 16.2 49 49 W 3 6 29.68 1005 10 16.09344 0 0
1:55 pm 13:55 Sunny 83 28.5 61 16.2 47 47 Calm 29.68 1005 10 16.09344 0 0
2:15 pm 14:15 Sunny 85 29.2 57 14 39 39 Calm 29.65 1004 10 16.09344 0 0
2:35 pm 14:35 Sunny 85 29.6 55 12.6 35 35 WSW 5 7 29.65 1004 10 16.09344 0 0
2:55 pm 14:55 Sunny 86 29.9 59 14.8 40 40 W 5 7 29.65 1004 10 16.09344 0 0
3:15 pm 15:15 Sunny 86 30.1 56 13.6 36 36 W 5 7 29.65 1004 7 11.265408 0 0
3:35 pm 15:35 Sunny 86 30.2 59 14.8 39 39 SSW 3 6 29.65 1004 10 16.09344 0 0
3:55 pm 15:55 Sunny 87 30.8 58 14.7 38 38 SSW 8 13 29.65 1004 7 11.265408 0 0
4:15 pm 16:15 Sunny 87 30.8 59 15 38 38 SSW 6 9 29.65 1004 10 16.09344 0 0
4:35 pm 16:35 Sunny 88 31.1 60 15.3 38 38 SSW 7 11 29.62 1003 10 16.09344 0 0
4:55 pm 16:55 Sunny 88 31 58 14.2 36 36 SSW 6 9 29.62 1003 10 16.09344 0 0
5:15 pm 17:15 Sunny 88 31 60 15.7 40 40 SSW 7 11 29.62 1003 10 16.09344 0 0
5:35 pm 17:35 Sunny 87 30.6 60 15.7 41 41 SSW 7 11 29.62 1003 10 16.09344 0 0
5:55 pm 17:55 Sunny 86 30.2 61 16.2 43 43 S 8 13 29.62 1003 10 16.09344 0 0
6:15 pm 18:15 Sunny 85 29.4 66 18.8 53 53 S 5 7 29.62 1003 10 16.09344 0 0
6:35 pm 18:35 Sunny 84 29.1 65 18.6 53 53 S 5 7 29.65 1004 10 16.09344 0 0
6:55 pm 18:55 Sunny 83 28.1 67 19.4 59 59 S 6 9 29.65 1004 10 16.09344 0 0
7:15 pm 19:15 Sunny 82 27.6 66 18.8 59 59 SSW 6 9 29.65 1004 10 16.09344 0 0
7:35 pm 19:35 Sunny 80 26.5 65 18.5 62 62 SSW 5 7 29.68 1005 10 16.09344 0 0
7:55 pm 19:55 Sunny 78 25.4 65 18.5 66 66 SSW 3 6 29.68 1005 10 16.09344 0 0
8:15 pm 20:15 Sunny 76 24.5 65 18.5 69 69 SSW 7 11 29.71 1006 10 16.09344 0 0
8:35 pm 20:35 Clear 72 22.4 65 18.5 79 79 SW 6 9 29.71 1006 10 16.09344 0 0
8:55 pm 20:55 Clear 71 21.9 65 18.1 79 79 SSW 7 11 29.71 1006 10 16.09344 0 0
9:15 pm 21:15 Clear 71 21.8 64 17.6 77 77 SSW 5 7 29.71 1006 10 16.09344 0 0
9:35 pm 21:35 Clear 71 21.5 63 17.1 76 76 Calm 29.77 1008 10 16.09344 0 0
9:55 pm 21:55 Clear 70 21.3 62 16.8 76 76 WNW 5 7 29.8 1009 10 16.09344 0 0
10:15 pm 22:15 Clear 72 22.2 62 16.6 71 71 W 6 9 29.77 1008 10 16.09344 0 0
10:35 pm 22:35 Clear 71 21.5 61 16.3 72 72 WNW 3 6 29.8 1009 10 16.09344 0 0
10:55 pm 22:55 Clear 72 22 61 16.3 70 70 WSW 5 7 29.77 1008 10 16.09344 0 0
11:15 pm 23:15 Clear 72 22.2 61 16.1 68 68 WSW 5 7 29.77 1008 10 16.09344 0 0
11:35 pm 23:35 Clear 71 21.7 61 16 70 70 SW 3 6 29.8 1009 10 16.09344 0 0
11:55 pm 23:55 Clear 70 21.3 61 16.1 72 72 SW 5 7 29.83 1010 10 16.09344 0 0

Powered by AerisWeather